Theta_e
356 356 355 354 354 353 353 353 353 352 350 349 349 349 349 351 352 353 353 354 354 355 357 356 356 357 357 357 356 355 357 358 357 358 361 361 361 360 359 361 364 363 362 361 358 356 357 358 360 358 357 357 356 355 354 354 354 355 355 357 359 359 358 360 361 360 359 358 357 355 352 350 349 349 347 346 346 346 346 347 346 346 345 346 351
354 355 354 355 355 354 353 353 353 351 350 350 349 348 348 348 350 351 352 353 353 354 356 356 356 356 356 356 356 355 356 358 358 357 358 360 360 359 358 359 363 363 363 362 359 358 357 358 360 360 358 357 356 355 353 353 352 352 354 355 356 356 358 359 360 360 359 359 357 356 354 353 351 348 348 347 347 347 348 348 347 346 344 346 353
352 354 355 356 356 356 355 354 354 353 351 349 348 348 347 347 348 349 350 351 352 353 355 355 355 356 355 354 355 356 356 358 359 357 357 359 360 360 358 358 359 359 359 360 359 359 359 358 359 359 358 357 356 356 355 354 352 351 353 354 354 354 355 356 357 360 360 358 357 356 354 352 350 348 348 348 348 348 349 350 348 347 347 348 351
353 354 356 357 356 355 355 355 355 355 353 351 350 347 346 346 346 347 348 348 348 351 353 353 354 355 356 355 355 356 356 357 358 358 358 358 359 361 359 358 357 357 357 359 359 359 358 358 358 358 357 357 357 356 355 354 353 351 353 355 355 356 356 356 358 361 362 359 357 356 353 351 350 349 349 348 348 348 349 351 351 351 353 353 351
354 354 356 359 359 358 357 355 354 355 354 352 350 348 346 345 344 345 346 346 346 348 350 352 353 353 355 355 355 356 357 357 358 358 357 357 358 359 359 358 359 358 358 358 359 358 357 357 358 358 358 358 358 357 355 354 353 352 353 355 357 358 358 358 359 361 363 362 360 358 355 352 351 350 350 350 350 350 350 351 353 354 355 356 353
356 355 356 359 360 361 360 356 355 355 355 354 352 351 348 345 344 345 346 346 346 346 346 349 351 352 353 355 355 356 357 358 359 359 358 356 355 356 357 357 357 358 358 356 357 358 357 357 358 358 358 358 358 357 356 355 355 354 355 355 357 358 358 359 359 361 364 363 361 359 357 355 352 351 352 353 354 354 353 352 352 353 356 358 356
358 357 357 359 360 361 361 358 355 355 356 355 353 352 349 347 345 344 344 346 346 346 345 345 348 351 353 354 355 357 358 358 360 361 360 359 356 357 358 356 356 356 355 354 355 356 355 356 357 357 357 357 357 357 356 356 356 354 356 356 356 356 356 357 358 359 362 361 358 358 359 357 354 352 352 353 354 355 355 355 354 353 355 358 358
360 359 360 361 360 359 359 358 356 355 355 354 352 353 353 351 350 348 346 346 346 346 346 344 344 347 350 354 357 357 357 359 360 361 362 361 358 356 356 355 357 357 355 353 353 353 353 354 354 354 355 354 355 356 355 355 356 355 354 354 354 354 353 354 355 355 356 358 358 358 357 357 356 354 354 354 354 355 355 354 353 350 351 356 359
358 359 359 359 358 358 360 358 356 355 355 354 354 355 356 354 353 350 348 349 348 347 347 346 345 345 347 351 356 358 359 359 359 359 362 362 359 356 354 356 359 358 355 353 354 353 355 355 353 353 354 353 353 355 355 356 358 357 356 355 354 354 353 353 355 353 351 353 356 355 354 356 359 358 357 358 356 353 350 350 350 349 348 353 357
358 357 358 358 356 358 359 357 355 355 355 355 357 357 357 357 355 352 350 351 350 348 347 347 345 345 345 347 353 357 358 358 357 356 359 360 358 356 354 355 358 358 356 356 357 357 357 357 355 354 354 354 354 354 355 355 356 357 357 356 355 354 354 354 355 355 352 350 352 353 353 355 358 358 358 358 353 349 347 347 348 349 349 352 356
357 357 357 357 355 356 358 357 354 355 355 356 358 358 356 355 354 354 353 352 351 350 351 350 349 349 349 349 352 353 352 353 355 356 358 359 357 357 356 356 355 356 358 357 358 358 357 358 357 354 353 354 354 355 356 355 356 356 356 357 357 356 356 355 354 354 354 351 350 351 352 353 354 354 357 357 354 352 349 347 348 349 348 352 355
357 357 358 357 354 354 357 358 355 354 354 356 358 358 356 354 354 354 354 354 354 354 353 351 350 351 351 351 351 351 350 351 352 354 355 357 356 355 356 355 354 354 356 356 357 360 360 359 357 353 353 353 354 354 356 356 356 356 355 356 357 357 356 355 353 353 353 352 352 353 353 352 351 352 354 355 356 354 351 349 350 349 348 352 354
357 357 357 357 357 355 356 358 357 355 355 355 357 358 357 356 356 355 355 355 354 354 353 352 352 353 353 352 351 350 350 351 352 353 355 356 356 354 353 354 353 353 354 355 356 358 359 357 355 353 353 354 354 355 355 354 354 354 356 358 357 355 355 355 355 355 354 352 353 354 353 351 353 356 356 355 355 354 352 352 351 349 348 351 354
356 357 356 356 356 356 357 358 357 356 356 355 356 356 355 356 357 356 356 355 353 352 352 352 353 355 354 352 349 347 348 349 350 351 353 353 353 351 351 353 354 352 352 353 353 354 356 356 355 354 352 351 353 355 354 354 355 355 357 358 358 356 353 353 354 355 355 354 354 354 353 352 354 356 357 356 356 355 353 352 352 351 350 351 352
355 356 355 354 354 354 356 357 356 356 356 355 354 353 353 354 356 356 356 354 353 353 352 352 354 353 352 351 349 346 347 348 348 348 348 349 349 349 350 353 355 353 352 353 352 352 353 353 353 353 352 351 352 353 353 354 355 356 355 355 356 356 355 353 353 354 355 356 355 355 355 355 354 355 355 357 357 356 354 354 354 353 351 351 351
353 353 352 352 352 352 353 353 353 354 353 352 353 353 352 352 353 354 353 352 352 353 351 350 352 352 351 351 349 346 345 346 347 347 347 347 348 348 350 354 356 355 354 353 354 354 352 350 350 351 352 352 352 352 353 352 353 354 354 353 354 355 355 354 353 353 354 354 354 354 355 355 356 355 355 356 356 355 355 355 355 352 349 349 350
348 349 349 350 350 350 350 350 351 351 351 351 352 352 350 350 350 349 349 349 350 350 349 348 348 349 350 350 348 345 344 345 345 345 346 347 346 348 351 352 353 354 354 352 352 353 351 350 349 349 350 351 350 350 350 349 350 351 352 352 352 352 353 353 353 353 354 354 352 352 353 354 355 355 355 356 356 355 353 353 352 351 350 350 349
346 346 347 347 347 348 348 348 348 348 348 348 349 348 347 347 347 346 347 348 347 347 347 346 345 345 346 346 344 343 342 342 341 342 343 343 344 346 349 349 348 351 353 352 351 351 350 349 349 346 344 344 344 344 345 344 345 347 350 350 350 351 352 353 352 353 354 353 353 352 351 351 352 354 355 356 356 353 351 350 350 350 350 351 349
343 344 344 344 344 345 345 344 343 343 345 346 346 346 346 345 345 345 346 346 345 344 343 343 341 342 342 342 341 339 338 338 338 339 340 340 342 344 344 344 344 345 346 346 346 347 347 346 344 338 330 326 327 331 333 335 337 340 344 347 349 350 350 349 350 351 351 352 353 354 353 351 351 352 352 353 353 350 347 347 348 347 346 346 345
342 342 342 342 342 343 343 342 341 341 343 343 342 343 343 342 343 343 343 343 342 340 339 339 338 337 338 338 337 335 334 334 335 335 335 335 337 337 335 333 333 334 336 336 337 339 339 337 335 328 317 311 313 314 316 319 322 328 337 343 345 346 345 345 345 346 346 347 349 351 352 352 353 352 351 349 347 344 341 342 342 341 341 340 340
343 343 343 343 343 343 344 343 343 342 342 341 341 342 343 341 341 341 340 339 338 336 336 335 335 334 333 332 332 331 331 330 329 329 330 330 331 331 328 324 322 323 326 327 329 331 329 325 325 320 311 308 310 310 311 314 316 323 333 338 338 337 338 337 337 338 340 343 346 346 348 350 352 352 349 346 342 340 337 336 336 336 336 334 334
342 342 342 343 343 343 343 343 343 342 342 342 341 342 342 340 340 339 338 336 335 333 332 332 331 329 328 327 327 327 327 327 327 327 328 329 329 329 328 325 322 319 318 319 322 324 322 321 323 321 315 312 313 314 316 320 321 324 330 331 331 332 333 334 335 337 340 342 343 344 345 347 348 345 341 338 337 335 333 331 331 332 332 330 330
338 338 339 340 341 341 341 341 341 341 340 341 340 340 339 339 338 338 336 335 334 332 331 330 329 328 327 326 325 326 326 326 328 329 330 330 330 329 327 325 322 317 314 313 314 314 315 319 324 325 324 323 322 322 323 323 324 326 328 330 331 333 334 335 337 339 340 341 341 340 339 339 339 336 333 331 330 330 329 328 327 326 326 325 325
331 332 332 334 335 337 338 339 339 339 338 338 338 338 338 337 337 336 335 335 334 333 332 331 330 330 330 326 321 319 319 320 321 323 325 326 326 324 322 320 316 314 312 313 313 313 317 323 327 329 330 330 329 328 326 325 326 329 331 334 335 335 336 337 337 338 340 340 338 337 336 335 334 332 330 330 328 327 327 326 324 322 321 320 320
328 326 326 326 327 329 331 333 335 336 336 336 336 336 336 336 336 336 335 335 334 333 333 333 333 332 331 327 322 319 319 318 317 315 314 315 316 315 315 316 316 318 320 322 321 323 327 331 332 332 333 333 333 332 330 328 329 331 333 336 337 336 337 337 336 337 338 337 335 335 334 333 331 330 329 328 326 325 325 325 325 324 322 320 319
328 325 324 323 323 323 324 326 329 331 331 332 333 333 333 334 335 335 335 335 335 334 333 333 333 331 329 327 326 325 325 324 323 320 317 318 318 317 318 320 322 325 327 328 327 329 332 334 334 333 333 334 334 333 331 330 332 333 334 336 336 336 336 337 336 337 337 335 334 334 332 330 330 330 329 329 328 328 328 328 328 327 326 324 322
329 327 325 324 323 322 320 321 322 325 328 329 330 331 331 331 332 333 333 333 332 332 330 328 327 326 325 325 325 325 325 325 325 323 323 323 323 323 323 324 324 326 328 329 331 332 333 333 333 332 334 336 335 333 333 333 334 334 334 335 335 335 335 336 336 336 335 334 333 333 332 331 331 331 331 329 327 326 326 326 325 325 325 326 325
328 327 326 325 325 323 322 320 318 319 322 325 327 328 329 328 328 329 329 329 327 326 325 324 323 325 326 326 325 324 323 324 323 323 323 324 323 323 324 324 325 328 329 331 332 332 332 331 332 331 332 334 334 333 333 334 333 332 332 333 333 334 333 333 334 333 333 333 332 332 331 330 330 328 326 324 322 320 320 320 320 322 323 324 326
328 327 326 326 325 324 323 322 320 318 318 319 319 320 322 323 323 322 322 322 323 324 324 323 322 322 324 324 324 323 322 322 322 322 323 323 323 323 323 324 326 329 330 330 330 331 330 330 330 330 330 331 331 331 331 331 331 331 330 330 330 331 331 331 331 331 331 331 331 330 329 328 326 323 320 319 318 318 318 318 320 321 322 323 324
329 327 326 325 325 324 323 324 324 322 320 319 318 317 317 318 318 317 317 317 318 320 322 322 321 321 320 318 317 317 317 318 319 321 322 323 323 323 323 324 326 328 329 330 330 330 330 329 329 329 329 329 329 329 329 328 328 328 327 327 327 328 328 329 329 329 329 329 329 328 328 328 326 323 321 320 319 318 319 319 319 320 321 321 322
329 328 326 325 326 326 325 325 326 326 324 323 323 321 319 318 317 316 316 316 316 317 318 319 320 321 320 318 316 313 311 313 316 320 322 322 322 323 322 323 326 327 327 329 330 329 328 328 327 328 327 327 327 327 327 326 326 326 326 325 324 324 325 325 325 326 326 326 326 325 325 325 324 323 322 322 321 321 320 320 321 321 322 321 321
330 329 328 327 327 327 326 326 327 327 328 327 326 324 323 321 319 318 318 317 317 317 317 318 317 318 319 320 318 314 311 311 315 319 321 322 322 322 322 323 326 327 327 328 328 326 326 326 326 326 325 325 325 326 326 325 325 325 325 324 323 323 323 323 323 323 323 323 322 322 322 321 321 320 320 321 322 322 321 321 321 321 321 321 321
329 329 329 330 328 328 327 327 327 327 329 329 328 327 327 325 323 321 319 318 318 318 318 318 318 318 318 318 317 314 311 311 313 317 320 322 322 323 322 322 323 325 326 327 326 326 325 325 324 324 324 324 324 324 324 324 324 324 324 324 323 323 323 322 322 322 322 322 321 321 321 320 320 320 320 320 320 320 320 320 320 320 320 320 320
326 325 326 328 329 328 327 327 327 327 328 328 329 328 328 327 327 325 323 321 321 320 319 318 318 318 319 319 317 315 312 311 312 315 318 321 322 323 324 324 323 323 324 325 324 324 324 323 323 323 323 323 322 322 322 322 322 322 322 322 322 322 321 321 321 321 321 321 321 320 320 320 320 320 320 320 319 319 319 319 318 318 318 318 318
326 325 324 325 328 328 326 326 326 326 327 328 327 327 327 326 326 326 326 325 325 324 323 321 319 318 318 319 318 316 313 311 311 312 316 320 322 323 324 325 324 322 323 323 323 322 322 322 322 322 321 321 321 320 320 320 320 320 320 320 320 320 320 319 320 319 319 319 318 318 318 318 317 317 317 318 318 318 318 317 317 316 316 316 315
326 325 323 324 325 325 325 326 326 326 326 326 326 326 326 325 325 325 325 325 326 326 325 324 321 319 318 319 319 317 315 313 311 311 313 317 320 321 322 323 322 321 321 321 321 320 320 319 319 319 319 319 318 318 318 318 318 318 317 317 317 317 315 315 316 316 317 316 316 316 316 315 315 314 314 315 315 315 315 315 314 313 313 312 311
323 323 324 325 326 325 325 326 326 324 323 324 325 325 324 324 324 324 324 324 325 325 325 326 323 320 319 319 318 317 316 315 314 314 315 316 319 320 320 320 320 320 319 318 318 318 318 317 317 316 316 315 315 315 315 315 315 315 314 315 315 314 313 313 313 313 314 314 313 313 313 312 312 311 311 312 312 312 312 312 311 310 310 309 308
321 323 324 324 324 325 324 324 324 323 322 323 324 324 323 322 323 323 322 323 324 323 324 325 325 323 322 322 320 318 317 317 318 318 319 318 319 319 319 318 318 318 318 317 317 317 316 316 315 314 314 313 313 313 312 312 312 313 312 313 313 312 312 312 312 311 311 311 311 310 310 309 309 309 308 308 308 309 309 309 308 308 308 308 307
321 323 322 321 321 323 324 323 322 322 322 322 322 322 321 321 321 321 321 322 322 322 322 323 323 323 323 324 322 320 319 319 320 321 320 319 318 318 318 318 317 317 316 316 316 315 315 314 314 313 313 313 312 312 311 311 311 311 311 311 311 311 310 310 310 310 309 309 309 309 308 308 308 307 307 307 306 306 306 306 306 306 306 306 306
320 322 322 321 320 321 322 322 321 321 321 320 320 321 321 320 320 321 321 321 320 321 320 320 321 321 322 323 323 322 321 320 320 320 319 319 318 317 317 317 316 316 316 315 314 314 314 313 313 313 312 312 311 311 311 311 311 311 311 310 310 310 309 309 309 308 308 307 307 307 307 307 306 306 306 305 305 305 305 305 305 305 305 305 305
319 320 321 321 319 319 320 320 320 320 321 321 321 321 322 321 321 320 321 321 320 321 320 319 321 322 322 321 321 320 319 319 319 318 318 318 318 317 317 316 316 315 315 314 314 313 313 313 312 312 311 310 310 309 309 309 309 310 310 309 309 309 308 308 308 307 307 306 305 305 305 305 304 304 304 304 304 304 304 305 305 305 305 305 305
319 319 319 319 319 319 319 319 319 320 321 321 322 322 321 321 321 321 321 321 320 320 320 319 320 322 322 320 318 317 318 318 318 318 317 317 317 316 316 315 315 314 314 313 313 312 312 311 311 311 310 309 309 309 308 308 308 308 308 308 308 308 307 307 306 306 305 304 303 303 303 303 303 303 303 303 303 304 304 304 305 305 305 305 305
318 318 318 317 317 318 317 318 319 319 320 320 320 320 320 320 319 319 319 319 318 318 318 318 318 320 321 319 316 316 317 317 317 317 317 316 316 316 315 314 314 313 312 312 311 311 310 310 310 310 309 309 308 308 307 307 307 307 307 307 307 306 306 305 305 304 303 302 301 301 301 301 301 301 302 303 303 303 303 304 304 305 305 305 305
316 317 317 317 317 317 317 318 319 318 318 318 318 318 318 318 318 318 318 317 317 317 317 317 318 319 320 319 317 317 317 317 317 317 316 316 315 315 314 313 313 312 311 311 310 310 310 309 309 309 308 308 307 307 306 306 306 306 305 305 305 305 304 304 303 302 301 300 300 300 300 299 300 300 300 301 301 302 302 303 304 304 304 304 304
315 316 316 316 317 317 317 317 318 317 316 316 316 315 316 316 316 316 316 316 316 316 316 316 317 318 319 319 318 318 318 317 317 316 316 315 314 313 313 312 312 311 310 310 309 309 309 308 308 308 307 307 306 306 306 305 305 305 304 304 303 303 303 302 301 300 299 299 298 298 298 298 299 299 299 300 300 301 302 302 302 303 303 303 303
314 314 314 314 315 315 315 316 316 315 315 314 314 314 314 314 314 315 315 315 316 316 315 315 316 316 317 317 318 317 317 316 316 315 315 314 313 313 312 311 311 310 310 309 308 308 308 307 307 307 306 306 305 305 305 304 304 304 303 303 302 301 300 300 299 298 298 297 297 297 297 297 298 298 298 299 299 300 301 301 302 302 302 302 303
313 314 314 313 313 314 314 314 314 314 313 313 313 313 313 314 314 314 315 315 316 315 315 315 315 315 315 316 316 316 315 315 314 314 313 313 312 312 311 310 310 309 309 308 308 307 307 306 306 306 305 305 304 304 304 303 303 302 302 301 300 299 298 297 297 297 297 296 296 295 296 296 297 297 298 298 299 299 300 300 301 301 302 302 302
312 313 313 313 313 313 313 313 314 314 313 313 313 313 313 313 313 314 314 314 315 315 315 315 315 315 315 314 314 314 314 313 313 313 312 312 311 311 310 310 309 309 308 308 307 306 306 305 305 304 304 304 303 303 302 302 301 301 300 299 299 298 297 296 296 295 295 295 295 295 295 296 296 297 297 298 298 299 300 300 300 301 301 302 302
312 312 312 312 312 312 312 312 312 312 312 312 312 312 312 312 312 312 312 312 313 313 313 313 313 313 313 313 313 313 313 312 312 312 311 311 310 310 309 308 308 307 307 307 306 306 305 304 304 303 303 302 302 301 301 301 300 300 298 298 297 297 296 295 294 294 294 294 294 294 295 295 296 296 297 297 298 299 299 300 300 301 301 302 302
312 311 311 311 311 311 311 312 311 311 311 311 311 311 311 311 311 311 311 311 311 311 311 311 312 312 312 311 311 311 311 311 311 311 310 310 309 308 308 307 307 307 306 306 305 305 304 303 303 302 301 301 301 300 299 299 299 298 297 297 296 295 294 293 293 293 293 293 294 294 294 295 296 296 297 298 298 299 299 300 300 301 301 302 302
311 311 310 310 310 310 310 310 310 310 311 311 311 311 310 310 310 310 310 310 310 310 310 310 310 310 310 310 310 309 309 309 309 309 309 308 308 307 307 306 306 305 305 304 304 304 303 302 302 301 300 300 299 299 298 298 298 297 296 296 295 294 293 293 293 293 293 293 293 294 295 295 296 297 297 298 298 299 299 299 300 301 301 302 302
Wind_Speed
17 16 17 17 17 17 17 17 17 16 16 16 16 16 16 15 15 14 14 14 13 13 13 13 13 13 12 12 12 12 12 12 12 11 12 12 12 12 12 10 11 12 12 12 13 12 11 11 11 12 12 12 13 13 12 12 13 12 11 11 11 11 12 12 11 12 12 12 12 11 10 9 9 8 9 10 10 9 7 7 9 10 11 9 7
17 16 16 16 16 16 16 16 16 17 17 17 17 17 16 16 15 15 14 14 14 14 14 13 13 13 13 13 12 12 12 12 12 12 12 13 14 14 13 11 12 13 13 13 13 12 11 12 12 13 13 14 14 14 14 14 13 12 12 13 13 13 13 13 13 13 12 12 12 12 11 10 10 10 9 10 11 10 9 9 9 10 10 8 5
16 16 15 14 14 14 15 15 15 17 17 17 17 17 17 16 16 16 15 15 14 14 14 13 13 13 13 13 12 12 12 12 13 13 13 13 13 13 13 12 13 14 14 14 14 13 12 13 13 13 14 13 14 14 14 14 14 13 12 14 15 14 14 15 15 14 13 13 12 12 11 11 12 12 10 11 12 12 11 10 9 10 10 9 6
9 13 13 11 12 13 14 15 16 16 17 17 17 18 17 17 17 17 16 15 15 14 14 14 13 13 13 13 13 13 13 13 14 14 14 14 14 13 12 12 13 14 14 14 14 13 13 14 14 13 14 13 14 15 14 13 14 14 13 13 14 14 15 16 16 14 13 13 13 13 12 12 13 13 12 13 13 13 12 11 11 11 10 9 8
6 10 11 10 10 11 11 13 15 16 16 17 17 18 18 18 18 18 17 17 16 15 15 15 14 14 14 14 14 15 14 15 15 15 15 15 14 14 14 14 14 14 15 15 14 13 14 14 14 13 14 14 14 15 15 14 14 14 14 14 14 13 13 14 14 14 14 15 14 13 13 14 14 14 14 14 14 13 13 12 11 11 10 10 9
5 4 5 8 9 9 11 13 14 13 12 14 14 15 17 18 18 18 17 17 17 17 16 15 15 15 15 15 16 16 15 16 15 15 16 15 15 15 14 15 16 15 15 15 14 14 16 15 15 15 15 15 15 14 14 14 14 14 14 14 14 14 14 14 14 14 14 14 14 14 14 13 14 16 14 13 13 12 13 14 13 12 11 10 9
8 6 6 8 10 11 12 12 13 12 11 12 13 12 14 17 18 18 18 17 17 17 17 17 16 15 15 16 16 15 14 15 15 15 15 15 15 14 12 12 14 14 14 14 13 13 15 15 16 17 15 15 15 14 13 13 15 15 14 13 14 14 14 14 15 14 13 14 14 15 13 11 14 17 15 13 14 13 12 13 14 15 14 10 9
9 9 8 9 10 11 10 11 13 13 13 15 15 12 14 17 17 14 16 17 17 18 17 17 17 16 16 16 16 16 16 15 13 13 12 13 13 13 13 11 11 13 15 15 14 14 16 17 19 16 13 15 17 17 14 13 14 15 14 13 13 13 15 17 14 13 16 16 15 14 13 12 13 14 12 9 11 14 14 11 12 17 21 15 9
8 10 11 12 11 10 11 14 18 17 16 16 15 14 15 17 16 13 14 16 16 17 16 16 16 16 16 15 15 16 15 14 13 12 13 14 14 13 14 14 12 13 16 16 15 16 17 18 19 16 12 14 16 16 14 14 15 14 13 13 13 13 16 18 14 13 17 19 17 16 15 14 12 11 10 8 8 12 14 12 12 19 26 20 11
9 12 13 13 13 12 14 16 16 15 15 15 16 17 16 16 16 14 14 15 15 14 14 15 16 15 16 16 13 8 9 11 14 14 15 17 16 13 12 14 14 15 15 15 15 16 16 17 20 19 16 15 16 15 16 18 19 17 16 17 17 17 17 17 15 14 14 16 18 19 19 17 12 10 11 10 10 12 13 13 14 21 26 21 11
10 12 13 13 14 14 15 16 17 16 14 15 16 16 15 15 17 17 15 12 10 10 11 12 12 12 12 11 5 1 3 8 11 12 13 15 15 13 11 13 16 16 14 14 15 14 13 13 17 20 18 16 16 16 15 16 17 17 17 17 18 18 17 17 18 17 14 15 16 17 19 20 18 16 13 11 9 11 15 16 15 18 23 19 11
11 11 12 12 13 14 14 15 16 16 17 18 17 15 15 16 17 16 15 12 10 10 10 11 10 10 11 10 7 5 2 5 6 8 10 12 14 14 12 13 16 16 15 15 14 12 11 11 13 17 16 13 14 15 13 13 15 16 16 16 17 18 17 19 21 20 20 20 18 15 17 19 21 21 18 13 11 11 15 16 13 15 21 20 13
11 11 11 11 11 12 11 11 12 13 16 18 16 14 14 13 14 16 16 14 12 13 13 13 10 6 6 7 6 6 4 4 5 5 7 10 12 13 12 14 18 17 15 14 12 11 13 14 14 14 12 10 11 12 13 15 16 16 16 15 17 18 18 19 21 21 21 21 20 21 25 24 21 20 18 15 14 15 16 15 13 16 22 22 14
8 7 7 7 8 8 7 6 8 10 12 14 13 13 12 10 10 12 13 12 12 12 11 9 6 2 3 4 2 1 1 3 5 5 7 9 11 12 11 12 14 14 16 16 15 14 14 13 12 10 9 11 13 13 14 14 14 14 14 14 15 17 18 19 20 20 21 21 22 26 29 27 24 24 23 20 20 20 19 16 15 17 20 20 16
3 3 4 5 5 6 5 5 6 7 9 10 10 10 10 9 8 8 7 6 7 8 8 7 5 4 4 6 6 3 3 4 4 5 6 7 8 9 9 9 10 11 13 15 14 13 13 13 11 8 6 8 11 12 12 12 12 12 14 15 17 18 19 19 18 18 18 19 20 22 24 25 26 27 26 24 24 24 21 17 16 18 19 17 16
5 4 3 3 3 3 3 4 5 6 7 9 10 9 10 9 7 6 6 6 5 5 5 5 4 4 3 5 6 3 2 4 5 6 7 7 7 7 7 9 10 10 11 13 13 13 14 16 14 9 6 4 6 9 10 11 12 12 13 16 18 19 20 21 20 20 20 20 20 22 23 24 24 25 25 25 26 25 20 16 15 16 15 13 12
10 8 7 6 5 4 4 3 2 4 6 8 9 8 8 8 7 5 5 7 7 6 5 5 6 6 5 5 6 4 0 3 5 5 5 6 5 6 8 9 10 9 9 11 12 12 13 14 13 11 9 8 10 12 14 15 16 15 14 17 19 20 21 21 20 19 19 19 21 23 24 23 22 23 23 24 26 24 18 16 14 11 9 7 9
10 9 9 8 7 6 6 7 7 4 2 3 6 7 6 5 5 5 6 8 7 5 5 5 6 7 6 6 4 3 1 1 2 2 3 3 3 5 8 10 10 9 8 8 9 8 8 8 9 10 10 11 13 14 15 15 15 14 15 16 18 20 20 20 19 18 16 17 20 22 23 23 22 23 24 25 25 20 15 14 12 8 7 6 8
11 11 11 11 10 10 10 11 12 11 10 9 7 7 7 5 5 6 7 8 7 5 4 6 7 7 8 7 5 3 3 3 2 2 2 2 4 6 8 10 9 9 9 9 9 8 6 5 8 10 11 11 12 12 12 12 12 12 13 15 15 16 16 18 18 18 17 18 20 20 20 20 19 20 22 25 24 19 15 14 12 9 7 6 10
13 13 13 13 13 13 12 11 12 12 12 12 9 9 10 8 7 8 9 10 10 8 7 8 9 9 9 8 7 4 3 4 4 3 4 4 6 7 7 9 9 10 10 10 10 9 8 8 9 12 12 12 12 12 11 11 11 11 11 13 13 15 17 19 20 20 19 20 21 20 18 16 14 15 17 19 19 17 13 11 10 9 5 2 7
16 16 16 15 15 14 14 13 12 12 12 12 10 10 11 10 9 9 9 10 11 10 9 9 10 10 8 7 8 6 6 6 6 6 7 8 9 10 9 10 10 10 10 10 9 9 9 10 11 13 14 13 12 12 11 11 11 10 9 11 15 17 19 21 20 19 19 19 20 21 20 18 17 17 13 9 8 7 7 9 10 9 7 7 8
16 16 17 18 17 16 15 15 15 14 13 13 12 12 12 11 10 9 9 10 11 10 9 10 11 12 11 10 10 9 8 7 6 7 8 9 9 8 8 9 9 10 10 9 8 9 11 12 12 13 14 13 12 12 11 10 10 9 9 10 13 13 14 14 14 14 15 15 16 17 16 15 12 6 2 8 9 7 8 9 8 8 8 9 12
15 14 15 16 16 16 16 16 16 15 15 14 14 14 13 12 11 11 11 11 11 10 10 10 11 12 11 9 9 9 7 6 6 7 8 8 7 7 7 8 8 9 10 10 10 10 11 12 12 12 13 13 12 11 10 9 9 10 10 10 10 11 12 12 12 12 12 11 10 10 9 8 8 11 14 15 14 12 12 11 10 9 9 9 10
13 14 14 14 14 14 14 14 14 14 14 14 14 14 13 13 12 12 12 11 11 10 9 9 9 8 7 6 8 9 9 8 9 9 8 7 7 8 8 9 9 10 10 10 10 10 10 10 10 11 11 11 10 9 8 9 9 9 11 12 11 11 12 11 11 12 10 8 8 10 12 13 14 14 14 12 12 12 12 11 11 11 11 10 10
12 13 12 13 12 12 12 12 12 11 11 11 11 11 11 11 10 9 10 10 9 9 8 7 6 5 4 4 6 9 11 12 13 12 10 9 9 8 7 8 8 7 7 8 8 7 7 8 9 9 9 9 8 7 7 8 9 9 10 11 11 11 11 11 10 10 9 9 10 10 11 12 13 14 13 12 11 12 11 11 11 12 12 12 12
11 11 11 12 11 11 11 10 10 10 9 9 9 8 7 8 7 7 7 7 7 6 5 5 3 2 3 4 5 7 9 10 12 12 12 11 10 8 7 8 6 4 5 7 7 5 6 9 10 10 9 8 7 6 4 5 8 9 8 8 10 12 12 11 10 10 9 9 9 8 8 10 11 11 11 11 12 12 10 9 8 9 9 10 9
9 10 10 10 10 11 11 10 9 9 9 8 8 8 7 7 6 5 5 5 5 5 5 4 4 3 5 5 6 7 8 10 11 12 12 11 10 10 10 10 8 7 7 7 7 7 8 10 11 11 10 7 6 6 4 4 7 9 8 8 10 12 13 12 11 10 10 9 8 7 7 9 9 9 10 11 12 11 9 8 7 7 7 6 4
7 8 8 8 9 9 9 10 10 10 10 10 10 9 9 8 8 8 7 6 5 5 5 6 6 6 6 7 7 7 8 10 12 13 13 12 11 11 11 10 10 11 10 9 9 10 10 10 10 12 11 8 8 9 8 8 10 13 13 13 12 12 13 13 12 12 11 9 8 8 9 9 10 10 10 11 11 11 10 9 8 7 8 8 7
6 7 7 7 7 7 8 9 10 10 11 12 12 11 10 10 9 9 8 7 6 5 6 7 8 8 8 8 8 7 7 9 11 12 12 12 12 12 12 12 11 11 10 10 10 10 10 9 9 11 12 11 11 12 13 14 14 14 15 16 14 13 13 13 12 12 10 9 8 7 7 7 8 9 10 10 10 9 8 7 6 6 7 8 8
5 6 7 7 7 7 7 8 8 8 10 11 12 13 13 12 11 11 10 9 7 6 8 10 10 10 10 10 10 8 7 8 9 10 11 12 12 12 12 11 10 9 9 8 8 8 8 9 10 11 11 12 12 13 14 14 13 13 14 15 16 15 14 14 13 12 10 10 9 8 7 7 8 8 8 8 7 6 6 6 5 5 5 5 4
3 5 6 7 7 6 6 7 7 7 8 9 10 11 11 12 12 12 11 11 10 9 10 11 10 10 9 9 9 9 9 7 8 9 11 12 12 12 12 11 10 10 10 10 8 8 8 9 10 10 10 11 12 12 12 13 13 12 12 13 15 15 15 15 15 13 11 11 10 9 9 9 9 8 7 6 6 5 5 5 5 4 3 3 3
4 4 5 5 5 5 5 5 5 5 6 6 7 7 8 9 9 9 9 9 9 9 9 9 9 9 8 7 7 8 9 8 8 8 10 11 12 12 12 11 9 9 11 11 10 9 10 10 10 10 10 11 11 11 11 11 11 11 12 12 13 13 14 14 13 12 11 11 10 10 10 9 7 6 6 5 6 6 6 6 6 7 7 7 7
5 5 4 3 3 3 3 3 3 3 4 4 4 4 5 5 6 6 6 6 6 6 6 6 7 7 7 7 7 8 9 9 8 7 8 10 10 11 12 12 11 10 11 10 10 9 10 10 10 11 11 11 10 10 10 10 10 10 11 10 10 11 11 11 11 11 10 9 9 9 8 8 6 6 6 6 6 6 6 6 7 8 9 9 9
4 4 4 3 2 2 2 1 1 2 1 1 2 2 1 1 3 5 5 4 4 4 3 3 4 4 5 5 6 7 8 8 7 6 7 8 8 7 7 8 10 11 11 10 9 9 9 9 10 10 10 10 10 10 10 10 10 10 9 9 8 9 9 9 9 9 9 8 8 7 7 7 7 7 8 8 7 7 7 7 7 7 8 9 10
1 2 3 1 1 1 0 1 1 0 0 1 2 2 1 1 3 4 4 3 3 3 3 3 3 2 3 3 4 5 6 7 7 6 6 6 6 6 5 4 6 8 9 9 9 9 9 9 9 9 9 9 9 10 9 9 9 9 9 9 9 8 8 8 8 8 8 7 6 6 7 6 6 7 8 8 8 8 8 8 8 7 8 8 8
4 3 1 1 3 3 1 1 1 1 1 2 3 3 3 4 5 5 4 3 4 3 3 4 4 3 2 1 1 3 5 6 7 7 6 6 6 7 6 5 5 6 7 8 8 8 8 9 8 9 9 9 9 9 9 9 9 9 9 9 8 8 9 9 9 9 8 8 7 7 8 7 7 8 8 8 7 8 8 7 7 7 7 8 9
7 6 3 2 2 3 3 1 1 2 3 3 4 4 4 5 6 6 5 4 4 6 4 5 5 4 4 3 1 1 3 4 6 8 9 8 8 7 7 6 6 6 6 7 7 7 8 8 9 9 9 9 9 9 9 9 8 9 9 8 8 8 9 8 8 10 9 8 8 9 9 10 10 10 10 9 9 8 8 7 8 8 9 10 11
6 5 5 6 5 5 6 5 4 3 4 5 6 5 6 6 5 6 7 5 5 6 6 5 6 6 5 4 3 2 1 1 3 4 4 5 6 5 5 6 7 7 7 7 7 7 7 8 9 9 10 10 10 10 11 11 11 11 11 10 9 9 9 8 9 10 10 9 9 10 10 11 11 11 11 11 11 10 11 11 11 11 11 10 10
3 4 3 5 6 7 7 7 7 6 5 6 7 6 7 7 7 7 8 7 7 8 7 7 7 7 5 5 6 5 4 4 5 4 2 2 3 3 3 4 5 5 6 7 7 7 7 8 8 8 9 10 9 9 10 10 11 11 11 11 11 10 10 10 11 11 11 11 11 12 12 12 13 13 13 12 12 12 13 13 13 12 12 11 10
3 2 2 1 4 6 7 8 8 8 7 7 7 7 8 8 8 8 8 9 9 9 9 10 9 7 3 4 7 6 6 7 7 6 5 3 2 2 2 3 3 3 4 5 6 6 7 7 7 9 9 9 10 12 12 13 14 13 11 11 12 11 11 12 12 12 12 12 12 12 12 12 13 13 13 13 12 13 13 14 13 12 12 12 11
5 3 1 1 3 4 6 7 7 7 7 7 7 8 8 8 8 9 9 10 11 11 11 11 7 4 3 2 5 5 6 9 9 9 7 5 3 1 2 3 4 5 6 6 6 6 7 9 9 8 9 9 11 13 14 15 17 16 13 12 12 12 12 12 12 12 12 13 12 12 13 13 13 13 13 13 13 13 13 12 12 12 12 12 12
4 5 4 4 3 3 5 7 6 5 6 6 7 8 7 7 8 9 8 10 11 10 12 12 7 1 3 2 4 4 6 8 8 8 7 5 2 0 1 3 3 3 5 6 6 5 7 8 8 8 8 9 11 11 11 12 14 14 13 12 12 12 11 11 11 11 11 12 12 12 13 14 14 14 14 14 13 13 13 12 12 12 12 12 11
4 4 4 4 4 5 5 5 5 5 6 5 5 6 6 7 8 9 9 10 10 10 10 12 9 2 1 2 4 5 6 7 7 6 5 4 3 3 3 3 2 2 2 4 4 5 6 7 8 8 8 9 10 10 11 12 12 12 12 13 13 12 11 10 10 11 11 11 12 13 13 14 14 14 14 14 14 13 13 13 13 12 12 12 12
4 4 3 3 4 4 4 4 5 6 5 5 5 5 6 7 8 8 8 9 10 9 8 10 9 5 2 2 3 3 4 5 4 3 3 3 4 4 3 3 3 3 4 4 4 5 6 7 9 9 9 9 10 10 11 12 12 12 12 12 12 11 10 10 9 9 10 11 12 13 13 13 14 14 14 14 14 14 14 13 13 13 13 13 12
6 5 4 3 4 3 3 4 4 4 5 6 6 6 6 6 7 6 6 7 8 8 7 7 6 5 3 2 2 3 3 3 2 1 2 3 4 4 3 3 3 3 4 4 4 5 6 7 8 9 9 10 10 11 11 12 12 12 11 11 10 10 9 8 8 9 10 12 12 13 14 14 14 14 13 14 14 14 13 13 13 13 12 12 12
5 4 5 5 5 4 4 4 4 4 6 7 7 6 7 7 7 6 6 7 8 8 8 6 5 5 5 4 3 2 2 2 2 2 3 3 3 3 3 3 3 3 3 4 4 5 7 7 8 9 10 10 11 11 12 12 12 11 11 10 8 7 6 6 7 9 11 12 12 13 14 15 14 14 14 14 13 13 13 12 12 12 12 12 12
4 4 5 5 4 4 4 4 4 4 5 7 7 6 7 7 7 6 6 6 6 7 7 6 5 4 4 4 3 3 2 2 2 2 2 2 3 3 3 3 2 3 4 5 5 6 7 7 7 8 10 10 11 12 12 11 11 11 10 7 5 3 3 5 8 10 11 12 14 15 15 15 14 14 14 14 13 13 12 12 12 12 12 12 12
4 4 4 3 3 4 5 4 3 4 5 6 6 6 6 6 6 6 4 4 5 5 5 5 5 4 4 4 3 3 3 3 2 2 2 2 2 3 2 2 3 5 6 6 6 6 7 7 8 9 10 10 11 11 11 11 11 10 7 5 3 4 6 9 10 10 11 13 14 15 14 14 14 14 14 14 13 13 13 13 12 12 13 13 12
4 5 4 3 4 5 5 5 5 5 5 5 6 5 5 6 6 6 6 5 5 5 4 5 5 5 4 4 4 4 3 3 3 2 3 2 2 2 2 2 4 6 7 8 8 8 8 8 8 9 9 10 11 11 11 11 10 7 5 5 7 9 12 13 12 12 12 13 13 13 13 13 14 14 14 13 13 13 13 13 13 12 12 13 12
3 4 5 5 5 4 4 4 5 5 5 5 6 5 4 5 6 6 6 6 7 6 5 5 5 5 5 5 5 5 4 4 4 3 3 2 3 4 4 5 6 8 8 8 8 9 9 9 9 9 10 11 11 11 10 9 7 5 5 8 11 13 13 12 11 12 13 13 12 13 13 13 13 13 13 13 13 13 13 13 13 13 13 12 12
4 4 5 5 4 4 4 5 5 5 4 5 6 5 5 5 6 6 5 5 6 7 6 5 6 6 6 5 5 5 5 5 5 5 4 4 4 5 6 7 8 8 8 7 8 9 10 10 9 10 11 11 11 10 9 8 6 6 9 12 14 14 13 12 11 11 12 13 14 14 13 12 12 13 13 13 13 13 13 13 13 14 14 13 13
Wind_Direction
197 197 204 206 205 207 209 210 214 219 220 222 223 224 222 221 223 222 220 219 217 214 216 221 223 223 223 222 221 221 217 219 224 222 219 227 236 241 241 233 229 236 242 247 252 252 251 251 251 255 257 258 259 257 255 253 248 246 247 246 248 251 252 256 265 271 274 275 276 277 277 278 276 270 270 270 271 278 279 285 293 289 288 286 264
196 196 205 210 208 210 212 210 212 218 222 224 226 228 227 226 225 226 225 223 222 220 218 220 223 224 227 229 228 227 220 216 224 226 223 227 234 239 240 237 237 244 248 251 253 253 254 253 251 252 253 254 255 257 257 254 251 249 243 235 241 250 248 248 256 265 272 274 273 275 276 278 277 271 267 269 275 281 279 283 287 282 289 295 265
189 187 202 209 210 214 216 216 215 217 221 224 227 229 229 228 227 228 230 227 224 225 226 226 225 225 228 231 231 231 227 222 226 230 230 230 234 239 241 239 238 244 249 250 249 250 250 250 251 252 254 253 252 254 256 256 257 257 246 232 233 242 245 245 248 255 266 271 272 275 275 276 276 273 271 273 274 274 274 277 281 281 289 298 287
185 182 200 209 216 222 221 220 222 222 224 225 226 230 230 229 227 227 231 232 228 225 227 231 230 228 228 230 231 231 231 229 229 230 230 229 232 237 240 243 245 246 249 250 251 252 252 251 251 252 254 256 257 256 255 256 257 256 252 242 238 241 244 243 243 248 261 268 269 273 275 275 275 275 274 275 274 273 272 272 279 283 283 290 295
205 187 197 204 218 237 239 234 229 226 228 229 228 229 229 229 229 227 227 231 232 229 226 228 230 230 230 230 232 232 231 231 230 231 234 233 232 234 235 239 243 245 247 250 252 256 259 258 256 256 254 253 255 257 256 257 256 254 254 253 252 252 253 252 250 249 254 261 266 272 278 280 280 278 276 274 273 275 276 269 269 278 279 281 291
248 217 198 194 207 238 253 254 252 245 241 243 242 239 236 233 230 227 227 227 229 230 228 227 227 227 228 231 232 232 231 232 231 230 233 235 235 236 234 234 241 245 247 249 250 251 253 255 254 254 255 254 255 259 263 266 264 259 256 255 255 254 254 256 256 253 254 262 270 273 271 277 285 286 286 291 293 291 291 287 279 276 273 271 283
234 239 212 197 208 227 238 253 272 283 281 274 269 260 254 252 242 232 229 228 228 231 230 228 228 227 229 230 231 233 233 233 234 234 234 239 242 244 241 235 241 248 248 251 259 259 259 262 258 250 250 258 261 261 267 274 273 271 271 272 272 272 270 266 259 258 261 263 268 272 271 276 284 286 292 303 298 284 285 298 299 288 278 266 269
217 225 212 204 213 224 225 234 247 256 262 271 278 270 264 277 281 265 247 237 229 231 233 232 230 228 229 231 229 230 232 235 238 239 239 244 250 257 262 255 251 254 254 254 258 259 263 270 272 266 258 259 258 254 258 268 272 275 277 283 295 302 295 288 286 287 282 272 266 272 281 284 280 283 289 287 276 269 272 292 304 292 286 279 263
214 224 223 218 218 220 220 226 232 235 235 244 257 257 253 269 286 287 276 266 250 239 238 239 239 236 235 238 234 224 221 228 239 242 240 241 241 250 260 262 264 264 262 259 256 258 261 266 273 276 270 263 261 258 259 266 271 275 276 284 299 300 286 286 296 302 296 293 291 287 283 277 269 275 279 267 270 281 284 293 298 287 284 282 271
220 226 230 225 221 222 225 228 235 240 239 235 237 240 244 255 263 259 260 271 275 266 254 248 247 244 239 241 242 231 221 229 237 242 244 242 241 247 255 260 265 267 263 260 258 260 265 270 274 275 272 272 272 266 264 268 271 273 275 280 285 283 278 284 293 297 298 301 301 299 293 286 282 280 274 268 274 284 289 293 293 283 278 276 272
229 233 237 231 223 227 234 235 234 234 235 235 237 239 239 245 252 247 240 242 255 270 279 283 282 280 275 271 279 359 259 247 243 246 247 246 251 261 263 260 264 265 260 259 261 264 267 274 281 283 283 284 280 274 273 276 275 276 278 280 279 276 275 275 277 281 287 283 283 292 295 296 302 298 287 285 284 281 284 285 284 283 280 277 279
231 234 241 241 229 227 232 233 232 231 228 227 232 236 233 233 238 238 233 223 209 214 243 267 281 298 314 329 9 41 340 271 264 261 251 245 252 260 263 264 265 263 260 258 260 266 267 268 279 286 289 289 282 277 276 277 277 279 281 284 286 284 279 272 268 268 273 274 274 278 280 284 290 287 285 296 296 282 282 283 285 289 284 279 281
239 240 244 249 242 236 233 225 225 227 223 222 224 224 224 230 235 229 221 213 208 213 224 232 238 264 321 333 339 352 335 277 261 254 239 239 252 261 266 269 267 268 273 272 268 271 273 272 275 278 277 281 284 278 271 272 275 278 281 284 287 287 284 278 271 265 266 268 268 269 273 274 274 273 279 286 279 273 277 281 286 288 282 279 284
250 253 251 256 257 253 245 226 224 224 219 220 225 225 220 220 224 223 216 212 214 217 216 212 207 181 63 56 42 7 298 262 264 257 246 252 264 272 277 273 268 272 279 278 273 272 274 276 277 273 269 275 283 286 284 282 282 284 289 292 290 288 286 280 273 269 268 264 260 265 273 274 270 273 280 277 269 272 275 272 273 277 278 282 289
273 290 279 275 275 264 250 235 230 221 212 219 231 235 232 226 219 211 202 199 203 199 196 190 168 144 131 115 113 152 239 274 294 289 281 279 278 282 287 281 276 277 274 273 278 284 290 296 291 283 279 273 275 288 297 297 293 291 293 296 292 287 284 280 275 271 267 264 262 265 270 271 268 271 276 274 270 272 272 267 269 276 283 290 292
45 28 8 341 325 302 280 262 245 229 225 233 235 228 222 218 209 192 175 164 152 146 161 167 139 118 128 132 132 152 262 301 307 305 303 300 296 300 300 287 284 284 274 273 285 295 307 319 322 320 325 309 287 298 306 304 301 298 292 290 287 283 279 276 274 271 269 268 268 268 270 270 267 265 268 270 269 266 263 260 263 274 289 296 292
55 49 46 42 35 19 360 342 282 248 241 232 217 201 199 200 192 181 169 160 150 135 127 136 133 116 100 112 139 157 263 316 311 313 315 315 319 320 308 292 289 295 293 291 298 302 308 325 341 340 327 316 309 310 310 308 307 302 292 286 283 281 277 276 277 276 272 271 271 271 270 270 268 262 260 262 263 261 257 252 257 275 293 283 274
63 63 61 61 59 51 47 59 73 82 105 160 172 173 180 189 174 157 153 151 152 150 137 129 131 130 120 110 122 149 147 3 344 351 338 339 8 1 336 315 300 306 321 323 327 334 326 330 347 346 332 324 321 318 316 314 313 308 300 293 286 282 280 281 282 280 275 275 277 276 273 273 271 266 261 261 261 257 249 245 251 274 289 276 275
76 75 72 71 70 71 75 80 82 85 90 95 110 126 125 118 112 116 126 130 130 135 135 122 115 120 122 113 106 116 123 112 84 48 23 34 66 45 8 355 347 349 356 353 351 4 18 9 353 346 342 337 332 330 330 327 323 318 311 302 293 289 290 291 289 285 281 279 277 276 276 276 273 265 258 257 255 247 238 234 232 236 252 278 291
83 79 77 76 74 75 80 84 83 86 93 93 88 88 94 98 99 102 110 114 115 113 110 107 100 96 103 116 124 124 105 86 73 59 54 61 75 71 41 23 21 16 12 7 2 4 14 8 347 338 342 345 341 340 342 339 331 325 318 310 306 304 300 296 293 292 292 287 280 278 279 273 263 252 244 240 240 238 232 221 211 204 201 270 308
78 77 77 77 77 76 77 81 85 86 90 94 89 83 88 96 98 99 102 103 103 103 102 105 102 93 95 115 123 114 95 82 76 72 71 68 68 67 55 38 29 21 14 9 0 351 351 349 340 336 341 344 342 340 341 340 335 329 316 302 300 299 297 295 296 298 299 297 292 291 289 281 269 260 248 224 209 204 183 168 162 153 134 91 48
76 78 78 78 77 76 74 76 79 80 81 87 87 83 85 90 91 91 92 92 92 92 93 97 99 95 93 94 94 92 86 78 70 68 71 69 61 53 44 34 26 20 14 5 355 347 346 343 337 336 340 342 342 342 342 342 337 332 322 310 310 317 320 315 311 309 308 307 308 311 310 301 289 283 65 87 95 108 119 121 122 121 109 84 72
78 80 81 81 82 80 78 76 76 77 77 78 80 80 80 81 82 84 85 86 87 88 88 90 91 90 88 82 76 76 71 58 47 46 49 50 43 30 21 16 14 13 11 7 2 354 347 345 345 349 353 355 351 348 350 355 355 354 356 354 355 3 1 345 327 320 319 322 337 1 21 38 64 80 79 75 73 74 77 76 77 88 88 80 81
77 77 76 78 79 79 78 78 78 80 80 78 78 79 80 79 79 82 86 88 90 90 91 93 92 91 92 80 63 57 52 40 31 28 25 23 19 10 6 9 13 16 16 15 11 2 355 359 4 8 12 11 7 7 16 22 20 18 22 23 17 8 359 349 339 337 343 2 28 47 61 72 82 89 92 91 83 73 70 67 62 66 70 71 76
71 74 76 77 78 80 81 80 79 82 84 84 84 87 88 88 90 93 94 95 97 98 99 100 97 98 104 86 56 44 42 35 29 28 30 29 22 17 22 25 23 24 19 8 3 2 359 0 4 8 8 7 12 21 26 30 32 30 32 34 25 8 354 348 349 360 20 44 55 61 70 80 90 94 95 93 85 74 68 61 56 56 58 63 74
71 72 72 72 73 75 79 80 80 80 81 83 85 86 87 92 99 108 109 105 104 104 101 96 96 90 78 73 57 46 41 35 31 33 40 42 37 37 45 39 31 37 22 360 355 2 360 354 355 353 343 339 2 26 24 20 22 16 14 24 25 16 8 3 7 22 40 54 57 62 78 88 90 86 79 76 74 68 62 57 53 53 53 56 73
77 77 75 72 70 69 71 74 74 73 70 72 76 74 73 81 86 81 73 72 78 81 71 60 54 54 61 66 68 63 52 42 40 43 47 49 48 47 43 34 35 50 39 16 15 23 18 12 8 0 346 331 344 351 323 324 358 3 3 16 26 26 21 17 22 34 46 56 57 61 76 84 81 76 73 74 72 69 70 73 64 50 41 35 47
75 77 77 76 74 74 76 77 76 71 64 63 66 65 63 67 69 63 54 52 53 59 66 62 50 45 52 55 59 63 54 42 42 47 50 50 52 52 46 38 43 48 38 30 36 37 30 28 24 18 18 19 11 1 356 7 21 22 21 24 33 38 30 23 28 36 42 52 60 62 65 66 66 69 71 71 70 67 67 70 61 45 37 30 23
58 61 63 67 70 73 79 80 82 83 80 77 77 78 77 78 78 75 75 76 68 60 72 76 65 57 59 58 56 60 55 45 43 47 49 50 53 55 51 47 48 48 39 36 42 41 35 34 35 32 34 35 31 26 24 25 27 27 24 22 28 36 34 29 31 32 34 44 55 59 61 62 67 76 81 79 76 69 61 58 56 44 37 33 30
47 47 44 45 48 56 70 77 80 87 91 90 88 87 89 93 95 90 87 86 82 82 92 93 86 78 75 70 66 66 64 56 51 51 51 52 54 55 53 51 49 45 41 39 40 41 40 41 44 45 44 44 43 41 37 33 30 30 29 28 29 31 30 29 29 29 33 42 45 45 51 56 60 67 72 72 70 64 58 60 63 55 39 32 29
41 57 56 50 42 45 63 75 78 84 92 99 101 98 94 94 94 94 94 94 93 96 102 102 99 94 88 78 66 61 62 62 60 59 56 55 56 55 52 52 52 49 42 36 33 37 41 41 41 40 42 47 46 43 43 43 39 34 34 35 34 31 29 28 26 26 31 35 36 39 43 43 46 49 51 50 44 34 28 27 24 12 352 334 324
17 39 55 57 48 50 70 82 88 97 106 112 118 119 115 108 101 99 101 102 102 102 101 97 94 91 88 82 66 54 53 55 60 66 66 62 59 57 52 50 54 55 47 41 42 42 39 39 39 33 31 38 41 38 38 39 36 33 34 36 33 28 27 26 24 26 34 35 34 37 37 34 39 42 34 25 16 3 358 355 344 332 328 326 321
22 29 36 40 41 46 66 83 92 107 122 131 141 149 146 136 129 124 119 114 110 108 105 102 98 89 83 79 68 54 51 52 57 68 75 71 66 62 59 54 53 52 48 43 44 44 40 39 40 33 28 30 32 32 32 29 26 28 32 34 33 27 24 25 23 23 29 31 29 27 22 17 14 10 1 359 356 349 344 339 333 332 336 335 325
26 32 27 18 29 39 34 42 84 111 131 145 159 177 178 129 138 149 154 155 149 139 132 123 114 104 93 80 68 58 55 57 60 68 81 84 76 64 57 53 50 50 47 41 39 40 38 37 36 33 30 27 23 22 25 23 19 18 19 21 24 21 18 19 19 16 16 17 16 12 3 358 354 347 340 334 328 322 319 320 323 325 326 325 319
356 66 63 36 265 236 357 347 329 295 187 227 229 222 211 199 202 198 195 198 197 185 179 182 174 145 116 90 70 62 57 56 61 70 81 84 68 37 13 24 47 50 46 42 41 40 36 33 33 30 24 23 19 16 16 14 9 6 6 7 7 7 8 9 11 10 7 5 6 1 353 351 350 344 338 335 333 330 325 321 322 322 320 322 326
283 255 222 249 263 269 294 332 312 320 312 272 272 268 239 221 230 237 236 242 261 263 208 177 188 208 193 148 84 65 61 57 63 68 71 73 60 35 20 30 47 49 47 45 42 42 38 35 34 30 24 22 20 13 10 10 7 3 4 3 360 2 6 5 5 6 359 351 354 357 351 348 348 344 336 332 335 338 336 330 327 326 325 329 330
296 290 311 359 332 301 303 284 262 318 309 281 280 285 274 262 266 273 269 253 260 271 247 183 180 208 216 205 205 68 70 74 80 79 73 67 57 40 30 35 37 37 45 43 36 41 44 37 32 31 27 23 19 13 9 7 5 2 1 355 351 358 5 4 3 2 356 346 346 351 350 348 349 347 341 335 329 327 325 320 316 312 312 314 312
280 281 318 348 342 315 303 285 262 274 282 266 258 264 274 278 280 281 279 270 260 265 257 215 200 219 221 203 202 220 190 113 123 118 86 54 36 23 25 33 30 29 35 35 31 35 38 35 33 32 26 22 20 18 14 9 6 5 360 350 345 354 0 356 352 351 348 341 337 336 335 335 334 333 332 329 326 322 321 318 313 308 305 302 298
273 245 274 313 302 286 285 281 272 270 276 275 274 276 280 283 280 277 281 279 271 270 271 260 252 256 238 192 185 203 223 233 239 244 269 352 4 360 6 19 25 28 26 22 20 22 23 26 23 13 9 12 10 6 7 3 356 355 355 349 345 346 345 341 340 339 339 338 332 326 323 323 323 322 320 318 316 316 315 313 310 307 306 303 298
308 233 160 29 297 278 277 280 279 276 273 275 281 284 283 285 285 286 290 289 282 281 282 278 283 302 313 187 192 217 252 272 283 293 304 319 332 341 343 343 350 360 1 1 5 3 359 358 353 349 357 2 350 341 342 339 332 332 336 334 330 331 332 331 330 328 329 332 332 329 328 328 328 327 323 319 316 313 310 308 307 306 305 304 302
318 297 270 274 282 277 269 262 264 273 279 284 292 299 304 306 300 296 298 298 295 295 292 287 296 353 34 181 207 232 268 286 300 308 302 290 291 326 340 326 334 349 359 4 7 355 338 334 337 343 353 354 346 345 348 345 340 341 339 328 323 327 329 330 330 330 330 332 332 331 331 330 328 325 322 320 319 316 310 307 307 306 304 304 303
320 317 312 289 272 276 274 268 269 280 286 286 289 293 300 302 295 290 294 297 296 297 297 294 297 62 114 214 245 257 268 282 298 309 304 290 278 291 312 306 325 1 7 0 358 350 336 331 333 340 345 344 342 345 346 341 339 341 337 330 329 329 326 326 331 333 334 334 333 332 330 328 325 322 319 317 316 315 314 312 309 307 306 305 303
307 305 311 303 293 291 292 294 294 283 280 297 318 315 308 300 291 285 285 285 284 286 292 295 297 302 164 251 265 258 261 277 293 301 297 285 264 253 274 292 308 350 357 340 334 334 331 329 332 337 339 338 338 339 337 337 338 336 330 328 328 326 321 321 326 330 333 335 334 332 330 328 327 325 322 321 320 318 316 314 310 308 308 308 308
290 284 282 285 292 299 306 308 301 291 296 321 327 307 291 292 294 295 296 294 290 289 295 298 297 291 264 253 258 253 262 280 291 288 276 267 261 263 278 306 323 327 325 324 325 326 325 327 333 336 334 331 333 334 333 334 334 332 329 329 329 327 325 327 330 336 341 338 333 331 330 327 325 324 324 323 324 321 317 316 317 318 317 314 313
274 278 282 277 274 274 274 274 275 282 296 300 290 272 267 275 283 291 302 305 300 296 295 296 295 291 280 270 272 276 285 296 306 284 270 277 280 282 290 304 308 308 315 326 335 331 323 322 326 330 329 328 329 330 328 327 327 326 325 325 323 324 327 330 334 340 342 338 334 332 329 325 323 322 321 320 320 318 316 316 319 320 318 314 311
290 284 282 280 277 279 290 304 316 315 301 291 284 282 287 290 293 303 314 316 313 308 302 296 295 297 297 299 306 312 310 310 305 293 298 308 309 304 300 295 280 276 301 318 319 313 313 316 321 324 325 324 324 323 323 323 324 323 322 321 322 325 332 339 341 340 339 339 338 332 325 322 320 318 316 317 316 316 316 317 316 315 314 313 311
290 276 284 302 310 299 292 302 314 310 294 285 282 287 296 298 302 311 315 308 303 304 304 302 302 301 299 306 320 328 326 321 314 311 329 337 325 317 322 323 297 287 300 305 300 301 307 310 314 319 323 324 324 324 324 324 324 324 326 331 339 336 327 334 339 335 332 332 332 327 321 319 317 315 314 316 316 314 315 314 313 312 313 312 310
271 264 279 309 305 282 274 273 268 263 273 283 287 290 293 292 292 295 299 295 300 310 314 316 320 321 323 329 331 331 336 343 339 329 335 334 319 316 324 319 308 315 321 321 321 326 326 318 315 320 324 324 324 326 325 323 322 324 328 334 331 322 323 330 336 336 333 330 326 322 318 317 316 314 314 314 313 313 313 313 311 312 313 312 309
273 273 276 268 261 269 279 287 285 276 273 278 282 284 290 295 296 298 299 298 301 310 318 326 332 336 342 346 342 336 335 336 324 313 318 317 307 306 308 297 298 309 313 309 309 316 320 317 315 318 320 320 321 322 320 319 323 332 341 332 324 326 331 334 336 337 337 333 325 319 317 316 314 312 312 312 311 311 311 311 311 312 311 309 306
262 275 274 266 268 275 266 258 266 276 281 281 281 284 286 286 286 294 308 314 309 303 305 319 327 327 325 329 332 331 327 321 314 308 307 300 290 288 292 293 294 300 307 308 307 309 312 313 313 313 313 314 315 315 316 319 324 333 336 332 331 332 335 337 337 336 334 329 323 318 317 315 312 312 313 312 311 310 311 311 310 309 307 304 304
247 255 260 266 279 286 274 260 262 269 274 280 284 284 284 290 298 305 306 302 300 304 315 330 333 326 322 325 328 327 323 318 313 304 296 294 294 291 291 294 298 305 315 318 310 305 307 310 310 310 312 312 311 311 312 312 311 315 324 330 332 330 329 329 324 319 320 324 325 321 316 313 314 314 313 312 311 310 310 308 307 307 307 305 305